{"data":{"norad_id":68519,"intl_designator":"2026-068M","name":"STARLINK-36326","alt_names":[],"object_type":"PAYLOAD","status":"ACTIVE","operator":null,"country":"US","launch_date":"2026-03-30","launch_site_code":"AFETR","launch_vehicle":null,"mission":null,"orbit_class":"UNKNOWN","rcs_meters":null,"size_class":null,"mass_kg":null,"dimensions":null,"purposes":["comms"],"wikipedia_slug":null,"has_3d_model":false,"image_url":null,"decayed_at":null,"tle_current":{"epoch":"2026-09-19T19:39:34.585056Z","epoch_age_seconds":106495,"freshness":"FRESH","line1":"1 68519U 26068M   26262.81915029  .00014884  00000+0  45070-3 0  9997","line2":"2 68519  53.1622 302.8281 0000507  84.6326 275.4734 15.34403963 26733","mean_motion":15.34403963,"eccentricity":5.07e-5,"inclination_deg":53.1622,"raan_deg":302.8281,"arg_perigee_deg":84.6326,"mean_anomaly_deg":275.4734,"bstar":0.0004507,"rev_number":2673,"period_min":93.847515694927,"perigee_km":462.3446313583,"apogee_km":463.03829136428,"semimajor_km":6840.8284613613,"source":"CELESTRAK","updated_at":"2026-09-20T09:00:43.903963Z"}}}